• In Hungary
  • List of Countries
  • For 7 days
  • Water Temperature
  • Satellite Maps
  • Weather Map
  • News
  • Weather Widgets
  • user-avatar
    Login

    Hourly Weather Gyor

    Today, 20 November, Monday

    Time Temperature Precipitation Wind Pressure Humidity
    00:00 +1°C° 0 mm 4 mps 751 mmHg 77%
    01:00 0°C° 0 mm 4 mps 750 mmHg 80%
    02:00 0°C° 0 mm 4 mps 750 mmHg 78%
    03:00 +1°C° 0 mm 4 mps 751 mmHg 76%
    04:00 +1°C° 0 mm 5 mps 751 mmHg 75%
    05:00 +1°C° 0 mm 5 mps 751 mmHg 74%
    06:00 +1°C° 0 mm 5 mps 751 mmHg 74%
    07:00 +1°C° 0 mm 5 mps 752 mmHg 75%
    08:00 +2°C° 0 mm 6 mps 752 mmHg 70%
    09:00 +3°C° 0 mm 7 mps 752 mmHg 65%
    10:00 +5°C° 0 mm 8 mps 753 mmHg 60%
    11:00 +5°C° 0 mm 8 mps 753 mmHg 58%
    12:00 +6°C° 0 mm 8 mps 753 mmHg 56%
    13:00 +6°C° 0 mm 7 mps 753 mmHg 55%
    14:00 +5°C° 0 mm 6 mps 753 mmHg 57%
    15:00 +6°C° 0 mm 5 mps 753 mmHg 59%
    16:00 +5°C° 0 mm 4 mps 753 mmHg 62%
    17:00 +4°C° 0 mm 4 mps 753 mmHg 64%
    18:00 +4°C° 0 mm 4 mps 753 mmHg 65%
    19:00 +3°C° 0 mm 4 mps 753 mmHg 67%
    20:00 +3°C° 0.1 mm 4 mps 753 mmHg 68%
    21:00 +3°C° 0.1 mm 4 mps 753 mmHg 68%
    22:00 +3°C° 0.1 mm 4 mps 753 mmHg 68%
    23:00 +3°C° 0.2 mm 3 mps 753 mmHg 71%

    Tomorrow, 21 November, Tuesday

    Time Temperature Precipitation Wind Pressure Humidity
    00:00 +3°C° 0.2 mm 3 mps 753 mmHg 73%
    01:00 +4°C° 0.2 mm 2 mps 753 mmHg 75%
    02:00 +4°C° 0.2 mm 2 mps 752 mmHg 75%
    03:00 +4°C° 0.2 mm 2 mps 752 mmHg 76%
    04:00 +4°C° 0.2 mm 2 mps 751 mmHg 77%
    05:00 +4°C° 0.3 mm 2 mps 751 mmHg 77%
    06:00 +4°C° 0.3 mm 2 mps 751 mmHg 77%
    07:00 +4°C° 0.3 mm 2 mps 751 mmHg 78%
    08:00 +3°C° 0.2 mm 3 mps 751 mmHg 76%
    09:00 +3°C° 0.2 mm 3 mps 750 mmHg 75%
    10:00 +4°C° 0.2 mm 3 mps 750 mmHg 74%
    11:00 +5°C° 0.4 mm 3 mps 750 mmHg 74%
    12:00 +5°C° 0.4 mm 3 mps 750 mmHg 73%
    13:00 +6°C° 0.4 mm 4 mps 750 mmHg 72%
    14:00 +7°C° 0.4 mm 3 mps 750 mmHg 74%
    15:00 +7°C° 0.4 mm 3 mps 750 mmHg 76%
    16:00 +7°C° 0.4 mm 3 mps 750 mmHg 78%
    17:00 +7°C° 0 mm 3 mps 750 mmHg 79%
    18:00 +7°C° 0 mm 3 mps 750 mmHg 79%
    19:00 +7°C° 0 mm 3 mps 750 mmHg 80%
    20:00 +7°C° 0.1 mm 3 mps 750 mmHg 81%
    21:00 +8°C° 0.1 mm 3 mps 751 mmHg 81%
    22:00 +8°C° 0.1 mm 3 mps 751 mmHg 82%
    23:00 +8°C° 0.2 mm 3 mps 751 mmHg 83%

    Day after tomorrow, 22 November, Wednesday

    Time Temperature Precipitation Wind Pressure Humidity
    00:00 +8°C° 0.2 mm 3 mps 751 mmHg 84%
    01:00 +8°C° 0.2 mm 3 mps 751 mmHg 85%
    02:00 +7°C° 0.1 mm 3 mps 751 mmHg 85%
    03:00 +7°C° 0.1 mm 3 mps 751 mmHg 85%
    04:00 +7°C° 0.1 mm 3 mps 751 mmHg 85%
    05:00 +7°C° 0 mm 3 mps 751 mmHg 85%
    06:00 +5°C° 0 mm 3 mps 751 mmHg 85%
    07:00 +5°C° 0 mm 3 mps 751 mmHg 85%
    08:00 +7°C° 0 mm 3 mps 751 mmHg 80%
    09:00 +8°C° 0 mm 3 mps 752 mmHg 75%
    10:00 +9°C° 0 mm 3 mps 752 mmHg 70%
    11:00 +10°C° 0 mm 3 mps 752 mmHg 67%
    12:00 +12°C° 0 mm 2 mps 751 mmHg 64%
    13:00 +13°C° 0 mm 2 mps 751 mmHg 61%
    14:00 +12°C° 0 mm 2 mps 751 mmHg 66%
    15:00 +10°C° 0 mm 2 mps 751 mmHg 71%
    16:00 +9°C° 0 mm 2 mps 751 mmHg 76%
    17:00 +9°C° 0 mm 2 mps 751 mmHg 79%
    18:00 +8°C° 0 mm 2 mps 751 mmHg 81%
    19:00 +7°C° 0 mm 2 mps 752 mmHg 83%
    20:00 +8°C° 0 mm 1 mps 752 mmHg 84%
    21:00 +8°C° 0 mm 1 mps 752 mmHg 85%
    22:00 +8°C° 0 mm 1 mps 752 mmHg 86%
    23:00 +8°C° 0 mm 1 mps 752 mmHg 86%

    23 November, Thursday

    Time Temperature Precipitation Wind Pressure Humidity
    00:00 +7°C° 0 mm 1 mps 752 mmHg 87%
    01:00 +7°C° 0 mm 1 mps 752 mmHg 87%
    02:00 +7°C° 0 mm 1 mps 752 mmHg 88%
    03:00 +6°C° 0 mm 2 mps 752 mmHg 88%
    04:00 +5°C° 0 mm 2 mps 752 mmHg 89%
    05:00 +5°C° 0 mm 2 mps 752 mmHg 89%
    06:00 +5°C° 0 mm 2 mps 752 mmHg 90%
    07:00 +5°C° 0 mm 2 mps 752 mmHg 91%
    08:00 +6°C° 0 mm 2 mps 753 mmHg 87%
    09:00 +7°C° 0 mm 2 mps 753 mmHg 83%
    10:00 +8°C° 0 mm 2 mps 754 mmHg 80%
    11:00 +9°C° 0 mm 2 mps 754 mmHg 77%
    12:00 +10°C° 0 mm 2 mps 754 mmHg 74%
    13:00 +12°C° 0 mm 1 mps 754 mmHg 71%
    14:00 +11°C° 0 mm 1 mps 754 mmHg 75%
    15:00 +10°C° 0 mm 1 mps 754 mmHg 80%
    16:00 +9°C° 0 mm 1 mps 754 mmHg 84%
    17:00 +9°C° 0 mm 1 mps 755 mmHg 86%
    18:00 +8°C° 0 mm 1 mps 755 mmHg 87%
    19:00 +8°C° 0 mm 1 mps 755 mmHg 89%
    20:00 +7°C° 0 mm 1 mps 756 mmHg 89%
    21:00 +7°C° 0 mm 1 mps 756 mmHg 89%
    22:00 +7°C° 0 mm 1 mps 757 mmHg 90%
    23:00 +6°C° 0 mm 0 mps 757 mmHg 90%

    24 November, Friday

    Time Temperature Precipitation Wind Pressure Humidity
    00:00 +6°C° 0 mm 0 mps 757 mmHg 90%
    01:00 +5°C° 0 mm 0 mps 757 mmHg 90%
    02:00 +5°C° 0 mm 0 mps 757 mmHg 90%
    03:00 +5°C° 0 mm 0 mps 757 mmHg 90%
    04:00 +5°C° 0 mm 0 mps 757 mmHg 90%
    05:00 +5°C° 0 mm 0 mps 757 mmHg 90%
    06:00 +5°C° 0 mm 0 mps 757 mmHg 90%
    07:00 +5°C° 0 mm 0 mps 758 mmHg 90%
    08:00 +6°C° 0 mm 0 mps 758 mmHg 86%
    09:00 +7°C° 0 mm 0 mps 758 mmHg 81%
    10:00 +8°C° 0 mm 0 mps 758 mmHg 77%
    11:00 +10°C° 0 mm 1 mps 758 mmHg 73%
    12:00 +11°C° 0 mm 1 mps 758 mmHg 70%
    13:00 +12°C° 0 mm 1 mps 758 mmHg 66%
    14:00 +11°C° 0 mm 1 mps 758 mmHg 70%
    15:00 +9°C° 0 mm 2 mps 758 mmHg 74%
    16:00 +9°C° 0 mm 2 mps 758 mmHg 78%
    17:00 +8°C° 0 mm 2 mps 758 mmHg 80%
    18:00 +8°C° 0 mm 2 mps 758 mmHg 82%
    19:00 +7°C° 0 mm 2 mps 758 mmHg 84%
    20:00 +7°C° 0 mm 3 mps 758 mmHg 85%
    21:00 +7°C° 0 mm 3 mps 759 mmHg 86%
    22:00 +7°C° 0 mm 3 mps 759 mmHg 87%
    23:00 +5°C° 0 mm 3 mps 759 mmHg 88%

    25 November, Saturday

    Time Temperature Precipitation Wind Pressure Humidity
    00:00 +5°C° 0 mm 3 mps 759 mmHg 89%
    01:00 +5°C° 0 mm 3 mps 758 mmHg 90%
    02:00 +5°C° 0 mm 3 mps 758 mmHg 90%
    03:00 +5°C° 0 mm 3 mps 758 mmHg 91%
    04:00 +4°C° 0 mm 3 mps 758 mmHg 92%
    05:00 +4°C° 0 mm 3 mps 758 mmHg 92%
    06:00 +4°C° 0 mm 3 mps 758 mmHg 92%
    07:00 +4°C° 0 mm 4 mps 758 mmHg 93%
    08:00 +5°C° 0 mm 4 mps 758 mmHg 89%
    09:00 +6°C° 0 mm 4 mps 758 mmHg 85%
    10:00 +7°C° 0 mm 5 mps 758 mmHg 81%
    11:00 +8°C° 0 mm 5 mps 757 mmHg 78%
    12:00 +9°C° 0 mm 5 mps 757 mmHg 75%
    13:00 +10°C° 0 mm 5 mps 756 mmHg 72%
    14:00 +9°C° 0 mm 5 mps 756 mmHg 74%
    15:00 +9°C° 0 mm 5 mps 755 mmHg 77%
    16:00 +8°C° 0 mm 5 mps 755 mmHg 80%
    17:00 +7°C° 0 mm 5 mps 755 mmHg 81%
    18:00 +7°C° 0 mm 5 mps 755 mmHg 82%
    19:00 +7°C° 0 mm 5 mps 755 mmHg 83%
    20:00 +6°C° 0 mm 4 mps 755 mmHg 84%
    21:00 +6°C° 0 mm 4 mps 755 mmHg 85%
    22:00 +6°C° 0 mm 4 mps 755 mmHg 86%
    23:00 +5°C° 0 mm 3 mps 755 mmHg 88%
    Show more